Simultaneous Nadir Overpasses (SNOs) Predictions

Prediction of SNOs between AQUA and METOP-B Satellite Orbit:

Table of predicted SNOs for the next 14.0 days since TLE Epoch: 8/2/2019
Index Date (AQUA) Time (AQUA) Lat,Lon (AQUA) SZA (AQUA ) Date (METOP-B) Time (METOP-B) Lat,Lon (METOP-B) SZA (METOP-B ) Distance(km) Time Diff (sec)
1 08/03/2019 23:45:08 73.84, 177.93 56.53 08/03/2019 23:44:07 73.82, 178.02 56.52 3.54 61
2 08/04/2019 00:34:35 -73.91, -14.58 123.39 08/04/2019 00:34:47 -73.90, -14.48 123.41 3.60 12
3 08/04/2019 01:24:10 74.30, 152.15 57.05 08/04/2019 01:25:19 74.30, 153.85 56.97 51.23 69
4 08/06/2019 19:19:22 73.80,-115.55 57.24 08/06/2019 19:18:29 73.83,-115.55 57.29 3.46 53
5 08/06/2019 20:08:49 -73.87, 51.94 122.68 08/06/2019 20:09:10 -73.86, 51.83 122.69 3.73 21
6 08/06/2019 20:58:30 74.57,-142.06 58.10 08/06/2019 20:59:35 74.60,-138.96 58.00 91.64 65
7 08/09/2019 14:53:36 73.81, -49.14 58.05 08/09/2019 14:52:50 73.84, -49.13 58.08 2.30 46
8 08/09/2019 15:43:03 -73.89, 118.35 121.87 08/09/2019 15:43:30 -73.91, 118.38 121.84 3.33 27
9 08/12/2019 10:27:51 73.83, 17.26 58.90 08/12/2019 10:27:12 73.84, 17.28 58.91 0.87 39
10 08/12/2019 11:17:18 -73.90,-175.26 121.02 08/12/2019 11:17:52 -73.92,-175.20 121.01 2.57 34
11 08/15/2019 06:02:06 73.86, 83.64 59.78 08/15/2019 06:01:34 73.84, 83.69 59.76 2.49 32
12 08/15/2019 06:51:33 -73.93,-108.87 120.14 08/15/2019 06:52:14 -73.92,-108.78 120.15 3.02 41




NCC Satellite Simultaneous Nadir Overpasses (SNOs) Prediction Service
